Weather History for KENW - October, 2011

Change the Weather History Date:

Sunday, October 23, 2011

  Actual Average Record
Temperature  
Mean Temperature 52 °F -  
Max Temperature 66 °F 58 °F 77 °F (1953)
Min Temperature 37 °F 40 °F 23 °F (1969)
Degree Days  
Heating Degree Days 14    
Growing Degree Days 2 (Base 50)    
Moisture  
Dew Point 39 °F    
Average Humidity 80    
Maximum Humidity 100    
Minimum Humidity 33    
Precipitation  
Precipitation 0.20 in - - ()
Sea Level Pressure  
Sea Level Pressure 29.94 in    
Wind  
Wind Speed 4 mph (West)    
Max Wind Speed 18 mph    
Max Gust Speed 43 mph    
Visibility 4 miles    
Events Fog , Rain , Thunderstorm    
Averages and records for this station are not official NWS values.
T = Trace of Precipitation, MM = Missing Value Source: NWS Daily Summary

Daily Weather History Graph

Daily Weather History Graph

Search for Another Location

Airport or City:

Trip Planner

Search our weather history database for the weather conditions in past years. The results will help you decide how hot, cold, wet, or windy it might be!

Date:

Astronomy

Oct. 23, 2011 Rise Set
Actual Time 7:14 AM CDT 5:57 PM CDT
Civil Twilight 6:45 AM CDT 6:26 PM CDT
Nautical Twilight 6:12 AM CDT 6:59 PM CDT
Astronomical Twilight 5:39 AM CDT 7:31 PM CDT
Moon 3:16 AM CDT (10/23) 3:51 PM CDT (10/23)
Length of Visible Light 11h 40m
Length of Day
10h 43m
Waning Crescent, 14% of the Moon is Illuminated
Oct 23
Waning Crescent
Oct 26
New
Nov 2
First Quarter
Nov 10
Full
Nov 18
Last Quarter

Hourly Weather History & Observations

Time (CDT) Temp. Windchill Dew Point Humidity Pressure Visibility Wind Dir Wind Speed Gust Speed Precip Events Conditions
12:53 AM 41.0 °F - 39.0 °F 93% 29.97 in 2.5 mi Calm Calm - N/A   Clear
1:17 AM 37.4 °F - 35.6 °F 93% 29.96 in 1.2 mi Calm Calm - N/A   Clear
1:31 AM 39.2 °F - 37.4 °F 93% 29.96 in 0.5 mi Calm Calm - N/A Fog Fog
1:38 AM 39.2 °F 37.0 °F 37.4 °F 93% 29.96 in 0.2 mi West 3.5 mph - N/A Fog Fog
1:53 AM 37.0 °F - 36.0 °F 96% 29.97 in 0.2 mi Calm Calm - N/A Fog Fog
2:04 AM 39.2 °F - 37.4 °F 93% 29.96 in 0.8 mi Calm Calm - N/A   Mist
2:13 AM 39.2 °F - 37.4 °F 93% 29.97 in 0.2 mi Calm Calm - N/A Fog Fog
2:53 AM 37.0 °F 34.5 °F 36.0 °F 96% 29.98 in 0.2 mi WNW 3.5 mph - N/A Fog Fog
3:53 AM 37.9 °F 34.4 °F 37.9 °F 100% 29.99 in 0.5 mi West 4.6 mph - N/A Fog Fog
4:00 AM 37.4 °F 33.8 °F 37.4 °F 100% 29.98 in 0.2 mi West 4.6 mph - N/A Fog Fog
4:12 AM 37.4 °F 34.9 °F 37.4 °F 100% 29.98 in 0.8 mi WNW 3.5 mph - N/A   Clear
4:22 AM 39.2 °F 37.0 °F 39.2 °F 100% 29.98 in 1.2 mi WNW 3.5 mph - N/A   Clear
4:40 AM 39.2 °F - 37.4 °F 93% 29.98 in 0.8 mi Calm Calm - N/A   Clear
4:51 AM 39.2 °F 37.0 °F 37.4 °F 93% 29.98 in 1.0 mi WNW 3.5 mph - N/A   Clear
4:53 AM 39.0 °F - 37.9 °F 96% 29.99 in 1.0 mi Calm Calm - N/A   Clear
5:04 AM 37.4 °F - 37.4 °F 100% 29.97 in 0.5 mi Calm Calm - N/A Fog Fog
5:38 AM 39.2 °F 37.0 °F 37.4 °F 93% 29.97 in 1.8 mi NW 3.5 mph - N/A   Clear
5:45 AM 39.2 °F 37.0 °F 37.4 °F 93% 29.97 in 2.0 mi WNW 3.5 mph - N/A   Clear
5:53 AM 39.0 °F 36.8 °F 37.9 °F 96% 29.99 in 1.8 mi West 3.5 mph - N/A   Clear
6:14 AM 39.2 °F 37.0 °F 37.4 °F 93% 29.97 in 2.0 mi WSW 3.5 mph - N/A   Clear
6:53 AM 37.9 °F - 36.0 °F 93% 29.98 in 2.5 mi Calm Calm - N/A   Clear
7:05 AM 37.4 °F 33.8 °F 35.6 °F 93% 29.97 in 3.0 mi West 4.6 mph - N/A   Clear
7:53 AM 37.0 °F 34.5 °F 36.0 °F 96% 29.99 in 10.0 mi West 3.5 mph - N/A   Clear
9:53 AM 53.1 °F - 42.1 °F 66% 29.99 in 10.0 mi Calm Calm - N/A   Clear
10:53 AM 59.0 °F - 41.0 °F 51% 29.98 in 9.0 mi SW 8.1 mph - N/A   Clear
11:53 AM 62.1 °F - 39.0 °F 43% 29.96 in 10.0 mi SW 11.5 mph - N/A   Clear
12:53 PM 64.0 °F - 34.0 °F 33% 29.93 in 10.0 mi SW 10.4 mph - N/A   Clear
1:53 PM 63.0 °F - 36.0 °F 37% 29.91 in 10.0 mi SW 12.7 mph - N/A   Partly Cloudy
2:53 PM 66.0 °F - 37.9 °F 36% 29.89 in 10.0 mi WSW 8.1 mph - N/A   Mostly Cloudy
3:53 PM 64.0 °F - 37.9 °F 38% 29.88 in 10.0 mi SW 8.1 mph - N/A   Mostly Cloudy
4:53 PM 63.0 °F - 39.0 °F 41% 29.86 in 10.0 mi SW 8.1 mph - N/A   Mostly Cloudy
5:53 PM 60.1 °F - 39.9 °F 47% 29.86 in 10.0 mi SSW 5.8 mph - N/A   Partly Cloudy
6:53 PM 57.9 °F - 45.0 °F 62% 29.88 in 5.0 mi SW 10.4 mph - 0.00 in Rain Light Rain
7:53 PM 55.9 °F - 44.1 °F 64% 29.85 in 10.0 mi SSW 9.2 mph - 0.01 in   Clear
8:53 PM 55.0 °F - 45.0 °F 69% 29.82 in 10.0 mi South 8.1 mph - N/A   Clear
9:53 PM 55.0 °F - 45.0 °F 69% 29.91 in 8.0 mi NW 18.4 mph 42.6 mph 0.00 in Rain , Thunderstorm Light Rain
10:01 PM 51.8 °F - 44.6 °F 76% 29.89 in 2.5 mi NW 17.3 mph 31.1 mph 0.02 in Rain , Thunderstorm Thunderstorms and Rain
10:27 PM 51.8 °F - 48.2 °F 88% 29.89 in 1.5 mi NW 17.3 mph 27.6 mph 0.14 in Rain , Thunderstorm Heavy Thunderstorms and Rain
10:39 PM 51.8 °F - 48.2 °F 88% 29.87 in 3.0 mi NW 11.5 mph - 0.17 in Rain , Thunderstorm Thunderstorms and Rain
10:53 PM 51.1 °F - 48.0 °F 89% 29.86 in 6.0 mi WSW 5.8 mph - 0.17 in Rain Light Rain
11:53 PM 52.0 °F - 48.0 °F 86% 29.84 in 10.0 mi WSW 11.5 mph - 0.02 in   Mostly Cloudy